Location: Middlebury
(44.0153°N, 73.1678°W)
Time: 15:16:37
(UTC-05:00)

ISS - Visible Passes

Search period start: 16 February 2019 00:00
Search period end: 26 February 2019 00:00
Orbit: 403 x 411 km, 51.6° (Epoch: 17 February)

Date Brightness Start Highest point End Pass type
(mag) Time Alt. Az. Time Alt. Az. Time Alt. Az.
22 Feb -1.4 06:00:16 10° SSW 06:02:55 23° SE 06:05:36 10° E visible
23 Feb -0.8 05:10:01 10° SSE 05:11:39 13° SE 05:13:18 10° ESE visible
24 Feb -3.1 05:53:05 10° SW 05:56:17 54° SE 05:59:29 10° ENE visible
25 Feb -2.1 05:02:57 17° S 05:04:52 30° SE 05:07:47 10° ENE visible
